Flag for Croatia Weather past 2 weeks in Split, Croatia

Now
70 °F

Passing clouds.


Feels Like: 70 °F
Forecast: 58 / 77 °F
Wind: 3 mph from Northeast

Location: Split / Marjan

Current Time: Sep 16, 2014 at 11:59:28 PM

Latest Report: Sep 16, 2014 at 10:00 PM


Visibility: 13 mi

Pressure: 29.97 "Hg

Humidity: 54%

Dew point: 53 °F

Location of SplitLocation

Historic Weather in Split — Graph

°F

Split temperature yesterday

Maximum temperature yesterday: 69 °F (at 9:00 PM)
Minimum temperature yesterday: 62 °F (at 6:00 AM)
Average temperature yesterday: 65 °F

Past Weeks' High & Low Weather Summary

 TemperatureHumidityPressure
High80 °F (Sep 8, 1:00 PM)88% (Sep 11, 2:00 AM)30.00 "Hg (Sep 11, 2:00 AM)
Low62 °F (Sep 15, 6:00 AM)41% (Sep 16, 3:00 PM)29.71 "Hg (Sep 2, 11:00 PM)
Average71 °F65%29.92 "Hg
* Reported Sep 2 11:00 PM — Sep 16 10:00 PM, Split, Weather by CustomWeather, © 2014

Note: Actual official high and low records may vary slightly from our data, if they occured in-between our weather recording intervals... More about our weather records

Advertising

Split weather history for previous 24 hours

 ConditionsComfort  
Time TempWeatherWind HumidityBarometerVisibility
10:00 PM
Sep 16
70 °FPassing clouds.3 mph54%29.97 "Hg12 mi
9:00 PM71 °FPassing clouds.No wind58%29.97 "Hg12 mi
8:00 PM72 °FPassing clouds.1 mph61%29.95 "Hg12 mi
5:00 PM74 °FPassing clouds.1 mph42%29.93 "Hg31 mi
4:00 PM76 °FScattered clouds.3 mph41%29.93 "Hg31 mi
3:00 PM76 °FScattered clouds.2 mph41%29.94 "Hg31 mi
2:00 PM75 °FScattered clouds.2 mph42%29.94 "Hg31 mi
1:00 PM74 °FPassing clouds.3 mph49%29.95 "Hg31 mi
12:00 PM73 °FPassing clouds.3 mph49%29.97 "Hg31 mi
11:00 AM72 °FPassing clouds.1 mph52%29.98 "Hg31 mi
10:00 AM71 °FScattered clouds.2 mph53%29.98 "Hg31 mi
9:00 AM67 °FScattered clouds.2 mph57%29.98 "Hg31 mi
8:00 AM65 °FScattered clouds.5 mph63%29.97 "Hg31 mi
7:00 AM64 °FScattered clouds.7 mph62%29.96 "Hg31 mi
6:00 AM64 °FPassing clouds.5 mph63%29.95 "Hg16 mi
5:00 AM64 °FPassing clouds.5 mph64%29.95 "Hg12 mi
2:00 AM65 °FPassing clouds.3 mph69%29.95 "Hg12 mi
11:00 PM
Sep 15
67 °FClear.5 mph67%29.95 "Hg12 mi
Weather by CustomWeather, © 2014

See weather overviewHow to use our weather pages